Weather History for Le Puy, France

Change the Weather History Date:

Wednesday, January 2, 2013

  Actual Average Record
Temperature  
Mean Temperature 33 °F -  
Max Temperature 38 °F - - ()
Min Temperature 28 °F - - ()
Degree Days  
Heating Degree Days 32    
Moisture  
Dew Point 28 °F    
Average Humidity 81    
Maximum Humidity 93    
Minimum Humidity 61    
Precipitation  
Precipitation 0.02 in - - ()
Sea Level Pressure  
Sea Level Pressure 30.23 in    
Wind  
Wind Speed 7 mph ()    
Max Wind Speed 17 mph    
Max Gust Speed -    
Visibility 6.7 miles    
Events      
T = Trace of Precipitation, MM = Missing Value Source: Averaged Metar Reports

Daily Weather History Graph

Daily Weather History Graph

Search for Another Location

Airport:

Trip Planner

Search our weather history database for the weather conditions in past years. The results will help you decide how hot, cold, wet, or windy it might be!

Date:

Astronomy

Jan. 02, 2013 Rise Set
Actual Time 8:23 AM CET 5:14 PM CET
Civil Twilight 7:49 AM CET 5:48 PM CET
Nautical Twilight 7:12 AM CET 6:25 PM CET
Astronomical Twilight 6:37 AM CET 7:01 PM CET
Moon 10:46 PM CET (1/2) 10:43 AM CET (1/2)
Length of Visible Light 9h 58m
Length of Day
8h 51m
Waning Gibbous, 77% of the Moon is Illuminated
Jan 2
Waning Gibbous
Jan 5
Last Quarter
Jan 11
New
Jan 19
First Quarter
Jan 27
Full

Hourly Weather History & Observations

Time (CET) Temp. Windchill Dew Point Humidity Pressure Visibility Wind Dir Wind Speed Gust Speed Precip Events Conditions
12:00 AM 35.6 °F 30.7 °F 32.0 °F 87% 30.06 in 6.2 mi NW 5.8 mph - N/A   Overcast
12:30 AM 35.6 °F 30.7 °F 32.0 °F 87% 30.06 in 6.2 mi WNW 5.8 mph - N/A   Overcast
1:00 AM 35 °F - 31 °F 82%  in 12 mi NW 6.9 mph - -   Clear
1:00 AM 35.6 °F 29.9 °F 32.0 °F 87% 30.06 in 6.2 mi NW 6.9 mph - N/A   Mostly Cloudy
1:30 AM 33.8 °F 28.6 °F 32.0 °F 93% 30.09 in 6.2 mi NNW 5.8 mph - N/A   Overcast
2:00 AM 33.8 °F 25.3 °F 30.2 °F 87% 30.09 in 6.2 mi NNW 11.5 mph - N/A   Mostly Cloudy
2:30 AM 33.8 °F 27.0 °F 30.2 °F 87% 30.09 in 6.2 mi NW 8.1 mph - N/A   Mostly Cloudy
3:00 AM 33.8 °F 27.0 °F 28.4 °F 81% 30.09 in 6.2 mi NW 8.1 mph - N/A   Unknown
3:30 AM 33.8 °F 26.4 °F 26.6 °F 75% 30.09 in 6.2 mi NW 9.2 mph - N/A   Unknown
4:00 AM 32.0 °F 26.4 °F 26.6 °F 80% 30.09 in 6.2 mi NNW 5.8 mph - N/A   Unknown
4:30 AM 30.2 °F 24.3 °F 24.8 °F 80% 30.12 in 6.2 mi NNW 5.8 mph - N/A   Unknown
5:00 AM 30.2 °F 26.7 °F 28.4 °F 93% 30.12 in 6.2 mi North 3.5 mph - N/A   Mostly Cloudy
5:30 AM 30.2 °F - 28.4 °F 93% 30.12 in 6.2 mi Calm Calm - N/A   Overcast
6:00 AM 32.0 °F - 30.2 °F 93% 30.12 in 6.2 mi Variable 1.2 mph - N/A   Overcast
6:30 AM 33.8 °F 30.8 °F 30.2 °F 87% 30.12 in 6.2 mi Variable 3.5 mph - N/A   Overcast
7:00 AM 33 °F - 29 °F 79%  in 12 mi NE 4.6 mph - -   Clear
7:00 AM 32.0 °F 27.5 °F 28.4 °F 87% 30.15 in 6.2 mi NE 4.6 mph - N/A   Mostly Cloudy
7:30 AM 33.8 °F 27.7 °F 30.2 °F 87% 30.15 in 6.2 mi NW 6.9 mph - N/A   Overcast
8:00 AM 33.8 °F 26.4 °F 30.2 °F 87% 30.15 in 6.2 mi North 9.2 mph - N/A   Mostly Cloudy
8:30 AM 33.8 °F 27.0 °F 28.4 °F 81% 30.18 in 6.2 mi NW 8.1 mph - N/A   Overcast
9:00 AM 33.8 °F 26.4 °F 28.4 °F 81% 30.18 in 6.2 mi NNW 9.2 mph - N/A   Mostly Cloudy
9:30 AM 33.8 °F 27.0 °F 28.4 °F 81% 30.21 in 6.2 mi NNW 8.1 mph - N/A   Mostly Cloudy
10:00 AM 33.8 °F 27.7 °F 28.4 °F 81% 30.21 in 6.2 mi North 6.9 mph - N/A   Overcast
10:30 AM 33.8 °F 25.3 °F 26.6 °F 75% 30.24 in 6.2 mi North 11.5 mph - N/A   Overcast
11:00 AM 33.8 °F 26.4 °F 26.6 °F 75% 30.24 in 6.2 mi North 9.2 mph - N/A   Overcast
11:30 AM 33.8 °F 25.8 °F 28.4 °F 81% 30.24 in 6.2 mi North 10.4 mph - N/A   Mostly Cloudy
12:00 PM 35.6 °F 26.2 °F 28.4 °F 75% 30.24 in 6.2 mi North 15.0 mph - N/A   Partly Cloudy
12:30 PM 35.6 °F 25.9 °F 28.4 °F 75% 30.24 in 6.2 mi North 16.1 mph - N/A   Mostly Cloudy
1:00 PM 36 °F - 27 °F 61%  in 12 mi North 17.3 mph - -   Clear
1:30 PM 37.4 °F 27.8 °F 26.6 °F 65% 30.24 in 6.2 mi North 17.3 mph - N/A   Partly Cloudy
2:30 PM 35.6 °F 26.6 °F 26.6 °F 70% 30.24 in 6.2 mi North 13.8 mph - N/A   Overcast
3:00 PM 35.6 °F 27.5 °F 26.6 °F 70% 30.27 in 6.2 mi North 11.5 mph - N/A   Overcast
3:30 PM 35.6 °F 27.5 °F 28.4 °F 75% 30.27 in 6.2 mi North 11.5 mph - N/A   Mostly Cloudy
4:00 PM 35.6 °F 27.1 °F 26.6 °F 70% 30.27 in 6.2 mi North 12.7 mph - N/A   Mostly Cloudy
4:30 PM 33.8 °F 25.3 °F 28.4 °F 81% 30.30 in 6.2 mi North 11.5 mph - N/A   Mostly Cloudy
5:00 PM 33.8 °F 25.8 °F 28.4 °F 81% 30.30 in 6.2 mi North 10.4 mph - N/A   Mostly Cloudy
5:30 PM 33.8 °F 25.3 °F 30.2 °F 87% 30.30 in 6.2 mi NNW 11.5 mph - N/A   Mostly Cloudy
6:00 PM 32.0 °F 23.6 °F 30.2 °F 93% 30.33 in 6.2 mi NNW 10.4 mph - N/A   Mostly Cloudy
6:30 PM 33.8 °F 26.4 °F 30.2 °F 87% 30.33 in 6.2 mi North 9.2 mph - N/A   Overcast
7:00 PM 33 °F - 29 °F 78%  in 12 mi North 9.2 mph - -   Clear
7:00 PM 33.8 °F 26.4 °F 28.4 °F 81% 30.36 in 6.2 mi North 9.2 mph - N/A   Overcast
7:30 PM 33.8 °F 27.0 °F 26.6 °F 75% 30.36 in 6.2 mi NNE 8.1 mph - N/A   Overcast
8:00 PM 33.8 °F 29.6 °F 28.4 °F 81% 30.39 in 6.2 mi North 4.6 mph - N/A   Overcast
8:30 PM 33.8 °F 30.8 °F 28.4 °F 81% 30.39 in 6.2 mi NW 3.5 mph - N/A   Overcast
9:00 PM 33.8 °F 28.6 °F 26.6 °F 75% 30.39 in 6.2 mi North 5.8 mph - N/A   Overcast
9:30 PM 32.0 °F 27.5 °F 26.6 °F 80% 30.42 in 6.2 mi NNW 4.6 mph - N/A   Overcast
10:00 PM 32.0 °F 25.6 °F 26.6 °F 80% 30.42 in 6.2 mi NW 6.9 mph - N/A   Overcast
10:30 PM 32.0 °F 24.8 °F 26.6 °F 80% 30.42 in 6.2 mi NNW 8.1 mph - N/A   Scattered Clouds
11:00 PM 32.0 °F 27.5 °F 26.6 °F 80% 30.45 in 6.2 mi NW 4.6 mph - N/A   Mostly Cloudy
11:30 PM 30.2 °F - 24.8 °F 80% 30.45 in 6.2 mi Calm Calm - N/A   Mostly Cloudy